Page, AZ

12:36 PM MDT on June 28, 2017 (GMT -0600)
Page Municipal

Weather History for KPGA - December, 2013

Change the Weather History Date:

Wednesday, December 11, 2013

  Actual Average Record
Temperature  
Mean Temperature 24 °F -  
Max Temperature 33 °F 42 °F 62 °F (2016)
Min Temperature 15 °F 27 °F 14 °F (1961)
Degree Days  
Heating Degree Days 41    
Moisture  
Dew Point 11 °F    
Average Humidity 56    
Maximum Humidity 71    
Minimum Humidity 32    
Precipitation  
Precipitation 0.00 in - - ()
Sea Level Pressure  
Sea Level Pressure 30.56 in    
Wind  
Wind Speed 1 mph (NE)    
Max Wind Speed 7 mph    
Max Gust Speed -    
Visibility 8 miles    
Events      
Averages and records for this station are not official NWS values.
T = Trace of Precipitation, MM = Missing Value Source: NWS Daily Summary

Daily Weather History Graph

Daily Weather History Graph

Search for Another Location

Airport or City:

Trip Planner

Search our weather history database for the weather conditions in past years. The results will help you decide how hot, cold, wet, or windy it might be!

Date:

Astronomy

Dec. 11, 2013 Rise Set
Actual Time 7:28 AM MST 5:09 PM MST
Civil Twilight 7:00 AM MST 5:38 PM MST
Nautical Twilight 6:27 AM MST 6:10 PM MST
Astronomical Twilight 5:56 AM MST 6:42 PM MST
Moon 1:39 PM MST (12/11) 2:00 AM MST (12/11)
Length of Visible Light 10h 38m
Length of Day
9h 40m
Waxing Gibbous, 72% of the Moon is Illuminated
Dec 11
Waxing Gibbous
Dec 17
Full
Dec 25
Last Quarter
Jan 1
New
Jan 7
First Quarter

Hourly Weather History & Observations

Time (MST) Temp. Windchill Dew Point Humidity Pressure Visibility Wind Dir Wind Speed Gust Speed Precip Events Conditions
12:53 AM 19.0 °F 13.9 °F 9.0 °F 65% 30.48 in 10.0 mi ESE 3.5 mph - N/A   Clear
1:53 AM 19.9 °F - 9.0 °F 62% 30.47 in 10.0 mi Calm Calm - N/A   Clear
2:53 AM 19.0 °F - 9.0 °F 65% 30.48 in 10.0 mi Calm Calm - N/A   Clear
3:53 AM 18.0 °F - 9.0 °F 68% 30.48 in 10.0 mi Calm Calm - N/A   Clear
4:53 AM 18.0 °F - 9.0 °F 68% 30.49 in 6.0 mi Calm Calm - N/A   Haze
5:53 AM 18.0 °F - 9.0 °F 68% 30.52 in 10.0 mi Calm Calm - N/A   Clear
6:53 AM 16.0 °F - 8.1 °F 71% 30.54 in 10.0 mi Calm Calm - N/A   Clear
7:53 AM 16.0 °F 10.4 °F 8.1 °F 71% 30.58 in 10.0 mi SSE 3.5 mph - N/A   Clear
8:53 AM 23.0 °F - 10.9 °F 60% 30.58 in 10.0 mi Calm Calm - N/A   Clear
9:53 AM 25.0 °F - 10.9 °F 55% 30.61 in 10.0 mi Calm Calm - N/A   Clear
10:53 AM 28.0 °F 22.8 °F 10.0 °F 47% 30.62 in 10.0 mi NE 4.6 mph - N/A   Clear
11:53 AM 28.9 °F 25.2 °F 10.0 °F 45% 30.60 in 10.0 mi NNE 3.5 mph - N/A   Clear
12:53 PM 30.0 °F 26.5 °F 10.9 °F 45% 30.58 in 10.0 mi Variable 3.5 mph - N/A   Clear
1:53 PM 30.9 °F 27.5 °F 12.0 °F 46% 30.56 in 10.0 mi NNE 3.5 mph - N/A   Clear
2:53 PM 33.1 °F 28.7 °F 10.0 °F 38% 30.55 in 10.0 mi North 4.6 mph - N/A   Clear
3:53 PM 32.0 °F 25.6 °F 10.0 °F 40% 30.56 in 10.0 mi NE 6.9 mph - N/A   Clear
4:53 PM 30.0 °F - 12.0 °F 47% 30.57 in 10.0 mi Calm Calm - N/A   Clear
5:53 PM 28.0 °F - 12.9 °F 53% 30.59 in 10.0 mi Calm Calm - N/A   Clear
6:53 PM 26.1 °F - 14.0 °F 60% 30.61 in 7.0 mi Calm Calm - N/A   Clear
7:53 PM 26.1 °F - 10.9 °F 53% 30.62 in 10.0 mi Calm Calm - N/A   Clear
8:53 PM 24.1 °F - 12.0 °F 60% 30.61 in 2.5 mi Calm Calm - N/A   Haze
9:30 PM 23.0 °F - 12.0 °F 63% 30.52 in 3.0 mi Calm Calm - N/A   Haze
9:39 PM 23.0 °F - 12.0 °F 63% 30.52 in 2.5 mi Calm Calm - N/A   Haze
9:51 PM 21.2 °F - 12.2 °F 68% 30.52 in 4.0 mi Calm Calm - N/A   Haze
9:53 PM 21.9 °F - 12.0 °F 66% 30.62 in 3.0 mi Calm Calm - N/A   Haze
10:53 PM 23.0 °F - 12.9 °F 65% 30.61 in 8.0 mi Calm Calm - N/A   Clear
11:53 PM 21.9 °F - 12.0 °F 66% 30.61 in 9.0 mi Calm Calm - N/A   Clear